Location: Kervinic
(48.4279°N, 4.7373°W)
Time: 02:20:25
(UTC+00:00)

SJ-6B - Pass Details

Date: 09 April 2020
Orbit: 509 x 582 km, 97.6° (Epoch: 03 June)

Event Time Altitude Azimuth Distance (km) Brightness Sun altitude
Exits shadow 20:15:42 - 176° (S) 2,744 6.1 -12.3°
Reaches altitude 10° 20:17:46 10° 180° (S) 1,894 5.3 -12.6°
Maximum altitude 20:21:49 57° 259° (W) 690 3.6 -13.2°
Drops below altitude 10° 20:25:55 10° 339° (NNW) 1,909 6.3 -13.8°
Sets 20:28:07 0° 344° (NNW) 2,809 7.2 -14.1°
